Home > Time Zones > World Clock > Weather > Iran > Rasht > Past weeks

Flag for Iran Weather past 2 weeks in Rasht, Iran

Now
57 °F

Fog.


Feels Like: 55 °F
Forecast: 52 / 77 °F
Wind: 9 mph from West

Location: Rasht Airport

Current Time: Oct 21, 2014 at 2:52:49 PM

Latest Report: Oct 21, 2014 at 2:30 PM


Visibility: 2 mi

Pressure: 29.92 "Hg

Humidity: 100%

Dew point: 57 °F

Location of RashtLocation

Historic Weather in Rasht — Graph

°F

Rasht temperature yesterday

Maximum temperature yesterday: 55 °F (at 6:00 AM)
Minimum temperature yesterday: 52 °F (at 3:30 PM)
Average temperature yesterday: 53 °F

Past Weeks' High & Low Weather Summary

 TemperatureHumidityPressure
High88 °F (Oct 19, 11:00 AM)100% (Oct 7, 3:30 AM)30.45 "Hg (Oct 7, 3:30 AM)
Low52 °F (Oct 20, 3:30 PM)24% (Oct 19, 12:30 PM)29.59 "Hg (Oct 19, 4:30 AM)
Average63 °F89%30.10 "Hg
* Reported Oct 6 1:30 PM — Oct 21 1:30 PM, Rasht, Weather by CustomWeather, © 2014

Note: Actual official high and low records may vary slightly from our data, if they occured in-between our weather recording intervals... More about our weather records

Advertising

Rasht weather history for previous 24 hours

 ConditionsComfort  
Time TempWeatherWind HumidityBarometerVisibility
1:30 PM
Oct 21
57 °FFog.7 mph94%29.92 "Hg3 mi
1:00 PM55 °FDrizzle. Mostly cloudy.7 mph94%29.95 "Hg2 mi
12:30 PM55 °FDrizzle. Mostly cloudy.9 mph94%29.95 "Hg1 mi
12:00 PM55 °FLight rain. Mostly cloudy.9 mph94%29.98 "Hg1 mi
11:30 AM55 °FLight rain. Mostly cloudy.5 mph94%29.98 "Hg3 mi
11:00 AM54 °FRain. Mostly cloudy.7 mph100%30.01 "Hg2 mi
10:30 AM54 °FLight rain. Mostly cloudy.5 mph100%30.01 "Hg3 mi
10:00 AM54 °FLight rain. Mostly cloudy.No wind94%30.04 "Hg2 mi
9:30 AM54 °FLight rain. Mostly cloudy.No wind94%30.04 "Hg4 mi
9:00 AM55 °FLight rain. Mostly cloudy.5 mph88%30.04 "Hg4 mi
8:30 AM55 °FLight rain. Mostly cloudy.No wind88%30.04 "Hg4 mi
8:00 AM54 °FLight rain. Mostly cloudy.No wind94%30.04 "Hg5 mi
7:30 AM54 °FMostly cloudy.No wind94%30.04 "HgN/A
7:00 AM54 °FMostly cloudy.No wind88%30.04 "HgN/A
6:30 AM54 °FLight rain. Mostly cloudy.No wind88%30.04 "Hg2 mi
6:00 AM54 °FSprinkles. Mostly cloudy.No wind94%30.07 "Hg2 mi
5:30 AM54 °FDrizzle. Mostly cloudy.No wind94%30.07 "Hg2 mi
4:30 AM52 °FDrizzle. Mostly cloudy.No wind100%30.09 "Hg2 mi
3:30 AM52 °FDrizzle. Mostly cloudy.No wind100%30.09 "Hg2 mi
2:30 AM52 °FDrizzle. Mostly cloudy.No wind100%30.12 "Hg2 mi
1:30 AM52 °FDrizzle. Mostly cloudy.No wind100%30.15 "Hg2 mi
11:30 PM
Oct 20
52 °FFog.No wind100%30.18 "Hg3 mi
10:30 PM52 °FLight rain. Mostly cloudy.No wind100%30.21 "Hg2 mi
9:30 PM52 °FLight rain. Mostly cloudy.No wind100%30.21 "Hg2 mi
8:30 PM52 °FMostly cloudy.No wind100%30.24 "Hg4 mi
8:00 PM52 °FFog.5 mph94%30.24 "Hg3 mi
7:30 PM52 °FFog.5 mph94%30.24 "Hg3 mi
7:00 PM52 °FLight rain. Mostly cloudy.5 mph100%30.24 "Hg2 mi
6:30 PM52 °FHeavy rain. Mostly cloudy.5 mph100%30.24 "Hg1 mi
6:00 PM52 °FLight rain. Mostly cloudy.5 mph94%30.27 "Hg2 mi
5:30 PM52 °FRain. Mostly cloudy.7 mph94%30.27 "Hg2 mi
5:00 PM52 °FHeavy rain. Mostly cloudy.5 mph100%30.27 "Hg1 mi
4:30 PM52 °FHeavy rain. Mostly cloudy.5 mph100%30.27 "Hg1 mi
4:00 PM52 °FRain. Mostly cloudy.9 mph100%30.27 "Hg1 mi
3:30 PM52 °FRain. Mostly cloudy.9 mph100%30.27 "Hg1 mi
3:00 PM54 °FHeavy rain. Mostly cloudy.9 mph100%30.27 "Hg1 mi
2:30 PM54 °FHeavy rain. Mostly cloudy.7 mph100%30.27 "Hg1 mi
2:00 PM54 °FHeavy rain. Mostly cloudy.5 mph100%30.27 "Hg1 mi
Weather by CustomWeather, © 2014

See weather overviewHow to use our weather pages